SCP
0 0 0 0 0 0 0 0 -0 -0 -0 0 0 0 0 -0 0 -0 0 0 0 -0 -0 -0 -0 -0 -0 0 0 -0 0 -0 0 0 0 0 0 0 0 0 0 0 0 0
0 0 0 0 0 0 0 0 -0 -0 -0 -0 0 0 0 -0 -0 0 -0 0 0 0 0 0 -0 -0 -0 -0 -0 -0 0 -0 0 0 0 0 0 0 0 0 0 0 0 0
0 0 0 0 0 0 0 0 -0 -0 -0 -0 -0 0 0 0 0 -0 0 -0 -0 -0 -0 -0 -0 -0 -0 -0 -0 0 0 0 0 0 0 0 0 0 0 0 0 0 0 0
0 0 0 0 0 0 0 0 -0 -0 -0 -0 -0 0 0 0 -0 -0 0 -0 0 -0 -0 -0 -0 -0 -0 -0 -0 0 0 0 0 0 0 -0 0 -0 0 0 0 0 0 0
0 0 0 0 0 0 0 0 0 -0 -0 -0 -0 -0 0 0 -0 -0 -0 -0 0 -0 -0 -0 -0 -0 -0 -0 -0 -0 0 0 0 0 0 0 0 0 0 0 0 0 0 0
-0 0 0 0 0 0 0 0 0 0 0 -0 -0 -0 0 0 -0 -0 0 -0 -0 -0 0 0 0 0 0 0 0 -0 -0 0 0 0 0 0 0 0 0 0 -0 0 0 0
0 0 0 0 0 0 0 0 0 0 -0 -0 -0 -0 -0 -0 0 -0 0 -0 -0 -0 0 -0 0 0 0 0 0 0 -0 0 0 0 0 0 0 0 -0 -0 -0 -0 -0 -0
0 0 0 0 0 0 0 0 0 -0 -0 -0 -0 -0 -0 -0 -0 -0 0 0 0 -0 0 -0 0 0 0 0 0 0 0 0 0 0 0 0 0 0 -0 0 0 -0 -0 -0
0 0 0 0 0 0 0 0 0 0 -0 -0 -0 -0 -0 -0 -0 0 0 0 -0 -0 -0 -0 -0 0 0 0 0 0 0 0 0 0 0 0 0 0 0 0 0 0 0 0
0 0 0 0 0 0 0 0 0 0 -0 -0 -0 -0 -0 -0 -0 0 0 0 -0 -0 -0 -0 0 -0 0 0 0 0 0 0 0 0 0 0 0 0 0 0 0 -0 -0 -0
0 0 0 0 0 0 0 0 0 0 0 -0 -0 -0 -0 -0 0 -0 0 0 0 0 0 0 0 0 0 0 0 0 0 0 0 0 0 0 -0 0 0 0 0 0 0 0
0 0 0 0 0 0 0 0 0 0 0 0 0 -0 -0 -0 -0 -0 -0 -0 0 0 0 0 0 0 0 0 0 0 0 0 0 0 0 0 0 0 0 0 0 0 0 0
0 0 0 0 0 0 0 0 0 0 0 0 -0 -0 0 0 -0 0 0 0 -0 0 0 0 0 0 0 0 0 0 0 0 0 0 0 0 0 0 0 0 0 0 0 0
0 0 0 0 0 0 0 0 0 0 0 0 0 0 0 0 0 -0 0 -0 -0 0 0 0 0 0 0 0 0 0 0 0 0 0 0 0 0 0 0 0 0 0 0 0
0 0 0 0 0 0 0 0 0 0 0 0 0 0 0 0 0 0 -0 0 0 0 0 0 0 0 0 0 0 0 0 0 0 0 0 0 0 0 0 0 0 0 0 0
0 0 0 0 0 0 0 0 0 0 0 0 0 0 0 0 0 0 0 -0 0 -0 -0 0 0 0 0 0 0 0 0 0 0 1 0 0 1 0 0 1 1 1 1 0
0 0 0 0 0 0 0 0 0 0 0 0 0 0 0 0 0 0 0 0 0 0 0 0 0 0 0 0 0 0 0 1 0 1 1 1 1 1 1 1 1 1 1 1
0 0 0 0 0 0 0 0 0 0 0 0 0 0 0 0 0 0 0 0 0 0 0 0 -0 0 0 0 0 1 1 1 1 1 1 1 1 1 1 2 1 1 1 1
0 0 0 0 0 0 0 0 0 0 0 0 0 0 0 0 0 0 0 0 0 0 0 0 -0 -0 -0 0 1 0 0 0 0 1 1 0 0 0 0 0 1 0 0 0
0 0 0 0 0 0 0 0 0 0 0 0 -0 0 0 0 0 0 0 0 0 0 0 0 0 0 0 0 0 0 0 0 0 0 0 0 0 0 0 0 0 0 0 0
0 0 0 0 0 0 0 0 0 0 0 0 0 0 0 0 0 0 0 0 0 0 0 0 0 0 0 0 0 0 0 0 0 0 0 0 0 0 0 0 0 0 0 0
0 0 0 0 0 0 0 0 0 0 0 0 0 0 0 0 0 0 0 0 0 0 0 0 0 0 0 0 0 0 0 0 0 0 0 0 0 0 0 0 0 0 0 0
0 0 0 0 0 0 0 0 0 0 0 0 0 0 0 0 0 0 0 0 0 0 0 0 0 0 0 0 0 0 0 0 0 0 0 0 0 0 0 0 0 0 0 0
0 0 0 0 0 -0 0 0 0 0 0 0 0 0 0 0 0 0 0 0 0 0 0 0 0 0 0 0 0 0 0 0 0 0 0 0 0 0 0 0 0 0 0 0
0 0 0 0 -0 0 0 0 0 0 0 0 0 0 0 -0 -0 0 0 0 0 0 0 0 0 0 0 0 0 0 0 0 0 0 0 0 0 0 0 0 0 0 0 0
0 0 0 -0 0 0 0 0 0 0 0 0 0 0 0 0 0 0 0 0 0 0 0 0 0 0 0 0 0 0 0 0 0 0 0 0 0 0 0 0 0 0 0 0
Wind_Speed_500mb
3 8 10 10 3 12 15 20 20 9 4 11 11 4 21 40 22 33 43 44 43 46 37 37 41 39 39 38 39 42 39 35 33 36 35 32 31 23 21 17 21 16 15 16
8 7 6 9 10 7 12 15 11 9 6 6 11 13 18 22 33 26 41 49 50 41 36 39 44 43 41 41 41 41 40 35 32 32 39 35 32 26 22 20 21 17 13 15
12 4 14 8 14 13 9 8 16 10 13 13 1 7 10 23 31 26 23 50 53 51 48 43 49 49 45 45 45 46 43 37 32 31 34 37 32 27 27 24 23 19 16 11
4 6 9 9 14 14 14 12 18 20 8 7 4 7 9 18 30 36 37 41 55 56 50 43 46 51 51 48 47 46 47 42 35 33 37 35 32 30 28 24 24 23 20 15
3 8 10 11 13 19 2 20 19 13 11 8 5 5 3 14 24 35 51 39 56 58 52 55 53 54 53 50 49 48 49 50 43 37 37 31 31 28 26 26 23 19 19 18
7 2 5 2 9 18 29 27 16 7 4 3 3 2 9 14 37 39 49 52 55 58 54 52 45 46 53 54 51 51 51 49 50 42 37 34 36 34 33 31 25 21 20 23
3 2 2 10 21 20 12 22 4 3 4 2 8 8 19 17 21 32 54 70 55 54 51 48 50 58 61 58 56 55 52 50 52 51 44 39 33 36 36 31 31 27 24 25
4 9 18 15 6 12 26 15 8 8 8 6 9 9 6 9 18 34 45 79 48 50 51 53 58 65 67 62 59 57 58 52 52 54 51 48 38 38 35 30 34 31 24 24
3 2 5 13 10 21 13 15 5 7 5 4 7 9 6 5 27 19 29 58 59 51 58 59 55 60 67 67 63 58 56 55 53 53 49 50 45 44 40 36 33 32 31 28
2 6 6 6 13 12 14 21 8 6 9 8 4 8 10 18 21 15 26 48 65 60 58 58 56 65 74 69 65 60 56 52 54 51 50 46 45 44 39 42 40 35 34 38
2 5 1 8 3 13 11 11 7 5 4 3 5 8 5 15 23 13 19 48 56 65 62 65 63 67 77 73 66 61 56 53 54 55 50 46 42 42 40 41 37 33 32 35
4 1 8 4 5 4 4 3 13 14 12 2 4 4 8 10 13 4 21 41 50 54 66 76 70 66 71 79 72 63 56 51 47 50 48 46 43 42 42 43 39 38 34 34
4 0 7 6 8 7 2 3 4 3 3 12 10 7 7 11 11 14 10 4 20 44 60 65 62 61 72 80 80 69 60 53 46 43 43 43 43 43 41 41 40 38 37 35
5 2 7 11 8 8 5 1 3 6 6 7 11 11 7 3 11 16 17 16 8 22 46 61 66 77 73 75 82 74 65 58 53 50 45 41 42 44 44 40 41 38 34 34
2 8 5 11 15 13 11 7 4 7 5 8 1 10 4 4 11 20 21 24 11 12 34 52 53 72 81 74 78 78 70 62 58 56 53 49 43 42 43 45 45 41 39 36
3 1 3 10 7 10 9 8 11 5 5 9 8 13 0 5 7 13 19 23 12 4 19 37 54 63 65 73 70 73 67 65 63 59 57 53 51 45 45 47 47 44 41 41
0 2 3 9 3 7 14 14 11 7 5 6 10 1 7 5 5 10 14 15 13 3 10 27 42 48 55 55 56 60 68 59 62 60 62 61 57 52 48 48 48 44 42 40
5 4 3 8 4 14 4 2 6 14 5 13 9 12 10 7 11 11 12 8 10 11 10 12 19 32 45 47 46 51 56 60 58 55 57 54 58 59 52 49 47 42 39 38
1 4 4 6 7 8 6 12 12 12 7 14 10 15 20 14 5 5 10 9 6 13 12 12 15 16 15 23 31 37 37 41 42 39 40 44 54 62 52 53 41 38 40 42
7 2 8 5 8 10 3 4 4 7 13 32 24 22 24 17 6 4 5 8 9 8 16 20 18 16 14 15 17 20 20 22 26 25 20 32 42 47 53 44 51 39 39 42
4 1 11 11 11 10 4 3 3 11 4 10 23 20 24 8 1 12 11 12 11 12 11 17 18 21 25 26 26 18 15 16 7 6 10 19 33 22 38 42 40 39 30 25
6 6 5 3 8 16 6 9 9 9 11 6 11 15 18 25 19 19 17 17 17 18 14 16 18 16 15 14 13 13 14 14 4 10 10 8 16 16 9 2 11 23 23 15
7 7 1 10 4 2 10 19 13 5 8 8 15 19 30 28 27 22 24 23 24 24 20 18 16 18 19 15 20 19 16 24 20 14 12 8 12 12 13 10 5 2 2 3
11 9 5 4 4 18 14 14 20 10 13 19 23 28 25 25 26 27 26 27 27 27 26 25 23 25 24 18 13 11 15 19 9 8 4 11 9 8 21 14 13 10 6 10
3 20 9 10 18 11 15 16 8 14 27 34 32 31 33 32 28 25 25 29 33 31 28 25 25 25 27 23 23 22 16 9 6 13 12 11 13 10 14 14 8 9 12 12
20 11 10 8 16 6 17 21 23 21 25 25 37 34 30 31 34 32 28 26 29 28 26 24 25 23 25 22 23 23 22 20 18 19 20 17 15 12 11 11 11 10 9 9
Wind_Direction_500mb
91 199 184 157 127 110 106 112 110 111 131 73 5 286 211 211 196 221 203 200 205 209 208 207 207 204 201 197 193 191 183 184 187 185 178 178 174 174 168 163 163 157 154 157
155 186 166 159 147 144 128 120 109 131 152 112 39 305 207 196 196 212 215 209 213 208 206 207 207 208 207 206 200 197 192 189 185 185 189 187 183 182 179 173 173 175 171 177
175 116 160 167 167 190 191 212 176 139 145 95 64 320 208 200 208 237 249 219 217 213 210 207 209 210 211 209 206 200 196 189 185 184 185 185 184 188 192 191 189 189 181 181
170 143 172 189 205 203 216 200 169 135 137 46 349 299 235 176 203 227 253 223 219 218 219 212 209 209 213 212 210 206 202 199 191 189 194 193 192 190 186 184 183 181 188 191
149 184 178 203 222 201 154 143 145 136 96 135 62 290 207 189 208 219 233 238 221 219 214 212 212 210 211 213 212 210 205 206 206 202 203 204 203 195 187 180 178 181 191 200
264 229 241 324 48 176 135 111 92 74 56 129 134 26 264 189 216 218 225 227 223 218 214 215 213 209 212 214 213 212 208 210 211 210 206 207 213 206 199 199 195 201 207 209
305 148 99 146 104 135 180 179 145 161 197 272 149 151 249 218 212 207 206 218 217 214 211 207 206 210 214 214 212 212 212 212 210 210 211 206 209 214 215 217 216 217 222 215
335 185 176 175 226 189 188 220 184 212 185 184 179 240 311 355 217 214 214 205 206 210 209 206 208 212 215 216 214 212 214 216 213 213 216 213 218 219 222 225 222 216 224 221
305 229 185 206 159 161 177 218 109 114 155 220 200 227 312 263 251 202 201 195 200 209 209 211 210 210 215 217 217 214 214 216 218 221 222 224 227 224 223 222 221 232 233 226
137 287 173 132 165 185 231 157 178 222 203 228 224 269 266 182 256 166 198 202 205 210 211 213 212 215 218 220 219 218 218 219 219 223 226 230 233 227 227 226 229 237 242 237
68 283 165 186 216 194 164 187 215 258 250 248 168 238 340 282 308 239 198 196 215 213 211 216 215 220 218 221 219 218 220 220 221 222 226 231 231 226 228 227 233 241 242 232
37 247 274 337 354 273 305 235 226 240 201 227 319 265 330 318 334 336 170 202 210 215 212 213 219 217 217 220 221 218 219 221 222 221 224 228 231 232 233 226 234 231 238 245
170 94 271 181 159 157 180 98 162 184 300 215 233 254 321 15 23 46 24 294 235 218 210 205 207 212 220 219 221 219 217 217 217 218 220 222 226 230 236 237 229 236 243 235
169 172 274 285 357 337 229 194 113 192 213 212 221 268 211 29 13 16 9 342 291 208 201 200 203 216 226 224 219 218 217 219 217 219 221 221 222 225 230 234 231 234 236 237
328 277 244 279 269 251 274 271 251 208 164 240 179 266 265 301 347 348 352 347 331 189 196 200 202 211 221 225 220 220 220 220 223 222 223 226 225 226 228 228 228 231 235 239
38 311 268 277 283 206 243 276 272 247 193 206 263 270 161 47 1 349 354 352 342 214 201 213 216 216 216 224 221 220 224 225 228 230 233 233 234 230 225 228 229 230 237 244
242 200 269 279 1 220 250 225 227 277 232 260 213 265 149 120 75 11 357 359 7 71 181 211 210 217 223 227 225 220 231 234 237 237 238 238 239 236 231 228 227 232 241 244
164 160 197 284 261 240 51 196 259 247 229 240 255 152 158 127 95 58 21 5 32 72 129 172 208 211 212 220 221 224 226 232 238 241 244 246 240 234 229 227 227 232 237 238
301 185 225 253 239 312 236 201 201 222 215 199 198 150 149 134 122 53 25 25 42 68 95 144 170 184 217 227 227 235 240 241 245 242 238 241 242 226 220 217 217 232 238 241
78 50 248 170 249 267 353 137 133 162 246 187 190 169 159 160 235 117 19 40 56 107 101 110 118 128 145 172 203 221 227 233 213 226 260 285 233 220 233 225 219 228 245 251
200 191 239 232 250 263 279 132 155 232 57 182 193 184 167 172 347 145 129 90 86 105 142 134 127 122 123 126 128 129 146 170 150 243 237 244 247 241 232 223 216 220 224 232
215 198 218 188 237 256 156 154 228 46 47 129 167 184 161 140 134 128 124 110 101 101 111 133 145 149 149 158 174 177 177 169 101 134 145 203 195 173 148 250 228 204 214 218
231 227 244 223 289 173 235 252 252 316 206 164 130 136 140 146 136 129 121 110 98 97 115 127 148 157 168 127 130 130 121 160 155 159 175 187 185 193 179 161 77 30 115 248
200 178 226 262 197 248 257 257 241 204 202 161 151 145 141 144 137 130 125 116 108 105 104 104 114 120 117 116 132 131 138 162 177 153 140 160 184 186 185 170 180 165 204 210
80 163 186 249 263 267 250 232 193 165 155 142 137 142 144 143 138 131 124 119 111 109 107 113 118 114 106 105 104 98 107 157 166 142 138 154 151 166 157 148 161 192 203 218
188 178 187 252 210 188 163 152 113 125 136 152 144 143 138 138 137 136 129 118 111 113 111 109 106 107 104 107 107 107 111 107 110 112 112 110 109 112 106 103 114 119 123 112
Wind_Speed_850mb
3 8 10 10 3 12 15 20 20 9 4 11 11 4 21 40 22 33 43 44 43 46 37 37 41 39 39 38 39 42 39 35 33 36 35 32 31 23 21 17 21 16 15 16
8 7 6 9 10 7 12 15 11 9 6 6 11 13 18 22 33 26 41 49 50 41 36 39 44 43 41 41 41 41 40 35 32 32 39 35 32 26 22 20 21 17 13 15
12 4 14 8 14 13 9 8 16 10 13 13 1 7 10 23 31 26 23 50 53 51 48 43 49 49 45 45 45 46 43 37 32 31 34 37 32 27 27 24 23 19 16 11
4 6 9 9 14 14 14 12 18 20 8 7 4 7 9 18 30 36 37 41 55 56 50 43 46 51 51 48 47 46 47 42 35 33 37 35 32 30 28 24 24 23 20 15
3 8 10 11 13 19 2 20 19 13 11 8 5 5 3 14 24 35 51 39 56 58 52 55 53 54 53 50 49 48 49 50 43 37 37 31 31 28 26 26 23 19 19 18
7 2 5 2 9 18 29 27 16 7 4 3 3 2 9 14 37 39 49 52 55 58 54 52 45 46 53 54 51 51 51 49 50 42 37 34 36 34 33 31 25 21 20 23
3 2 2 10 21 20 12 22 4 3 4 2 8 8 19 17 21 32 54 70 55 54 51 48 50 58 61 58 56 55 52 50 52 51 44 39 33 36 36 31 31 27 24 25
4 9 18 15 6 12 26 15 8 8 8 6 9 9 6 9 18 34 45 79 48 50 51 53 58 65 67 62 59 57 58 52 52 54 51 48 38 38 35 30 34 31 24 24
3 2 5 13 10 21 13 15 5 7 5 4 7 9 6 5 27 19 29 58 59 51 58 59 55 60 67 67 63 58 56 55 53 53 49 50 45 44 40 36 33 32 31 28
2 6 6 6 13 12 14 21 8 6 9 8 4 8 10 18 21 15 26 48 65 60 58 58 56 65 74 69 65 60 56 52 54 51 50 46 45 44 39 42 40 35 34 38
2 5 1 8 3 13 11 11 7 5 4 3 5 8 5 15 23 13 19 48 56 65 62 65 63 67 77 73 66 61 56 53 54 55 50 46 42 42 40 41 37 33 32 35
4 1 8 4 5 4 4 3 13 14 12 2 4 4 8 10 13 4 21 41 50 54 66 76 70 66 71 79 72 63 56 51 47 50 48 46 43 42 42 43 39 38 34 34
4 0 7 6 8 7 2 3 4 3 3 12 10 7 7 11 11 14 10 4 20 44 60 65 62 61 72 80 80 69 60 53 46 43 43 43 43 43 41 41 40 38 37 35
5 2 7 11 8 8 5 1 3 6 6 7 11 11 7 3 11 16 17 16 8 22 46 61 66 77 73 75 82 74 65 58 53 50 45 41 42 44 44 40 41 38 34 34
2 8 5 11 15 13 11 7 4 7 5 8 1 10 4 4 11 20 21 24 11 12 34 52 53 72 81 74 78 78 70 62 58 56 53 49 43 42 43 45 45 41 39 36
3 1 3 10 7 10 9 8 11 5 5 9 8 13 0 5 7 13 19 23 12 4 19 37 54 63 65 73 70 73 67 65 63 59 57 53 51 45 45 47 47 44 41 41
0 2 3 9 3 7 14 14 11 7 5 6 10 1 7 5 5 10 14 15 13 3 10 27 42 48 55 55 56 60 68 59 62 60 62 61 57 52 48 48 48 44 42 40
5 4 3 8 4 14 4 2 6 14 5 13 9 12 10 7 11 11 12 8 10 11 10 12 19 32 45 47 46 51 56 60 58 55 57 54 58 59 52 49 47 42 39 38
1 4 4 6 7 8 6 12 12 12 7 14 10 15 20 14 5 5 10 9 6 13 12 12 15 16 15 23 31 37 37 41 42 39 40 44 54 62 52 53 41 38 40 42
7 2 8 5 8 10 3 4 4 7 13 32 24 22 24 17 6 4 5 8 9 8 16 20 18 16 14 15 17 20 20 22 26 25 20 32 42 47 53 44 51 39 39 42
4 1 11 11 11 10 4 3 3 11 4 10 23 20 24 8 1 12 11 12 11 12 11 17 18 21 25 26 26 18 15 16 7 6 10 19 33 22 38 42 40 39 30 25
6 6 5 3 8 16 6 9 9 9 11 6 11 15 18 25 19 19 17 17 17 18 14 16 18 16 15 14 13 13 14 14 4 10 10 8 16 16 9 2 11 23 23 15
7 7 1 10 4 2 10 19 13 5 8 8 15 19 30 28 27 22 24 23 24 24 20 18 16 18 19 15 20 19 16 24 20 14 12 8 12 12 13 10 5 2 2 3
11 9 5 4 4 18 14 14 20 10 13 19 23 28 25 25 26 27 26 27 27 27 26 25 23 25 24 18 13 11 15 19 9 8 4 11 9 8 21 14 13 10 6 10
3 20 9 10 18 11 15 16 8 14 27 34 32 31 33 32 28 25 25 29 33 31 28 25 25 25 27 23 23 22 16 9 6 13 12 11 13 10 14 14 8 9 12 12
20 11 10 8 16 6 17 21 23 21 25 25 37 34 30 31 34 32 28 26 29 28 26 24 25 23 25 22 23 23 22 20 18 19 20 17 15 12 11 11 11 10 9 9
Wind_Direction_850mb
91 199 184 157 127 110 106 112 110 111 131 73 5 286 211 211 196 221 203 200 205 209 208 207 207 204 201 197 193 191 183 184 187 185 178 178 174 174 168 163 163 157 154 157
155 186 166 159 147 144 128 120 109 131 152 112 39 305 207 196 196 212 215 209 213 208 206 207 207 208 207 206 200 197 192 189 185 185 189 187 183 182 179 173 173 175 171 177
175 116 160 167 167 190 191 212 176 139 145 95 64 320 208 200 208 237 249 219 217 213 210 207 209 210 211 209 206 200 196 189 185 184 185 185 184 188 192 191 189 189 181 181
170 143 172 189 205 203 216 200 169 135 137 46 349 299 235 176 203 227 253 223 219 218 219 212 209 209 213 212 210 206 202 199 191 189 194 193 192 190 186 184 183 181 188 191
149 184 178 203 222 201 154 143 145 136 96 135 62 290 207 189 208 219 233 238 221 219 214 212 212 210 211 213 212 210 205 206 206 202 203 204 203 195 187 180 178 181 191 200
264 229 241 324 48 176 135 111 92 74 56 129 134 26 264 189 216 218 225 227 223 218 214 215 213 209 212 214 213 212 208 210 211 210 206 207 213 206 199 199 195 201 207 209
305 148 99 146 104 135 180 179 145 161 197 272 149 151 249 218 212 207 206 218 217 214 211 207 206 210 214 214 212 212 212 212 210 210 211 206 209 214 215 217 216 217 222 215
335 185 176 175 226 189 188 220 184 212 185 184 179 240 311 355 217 214 214 205 206 210 209 206 208 212 215 216 214 212 214 216 213 213 216 213 218 219 222 225 222 216 224 221
305 229 185 206 159 161 177 218 109 114 155 220 200 227 312 263 251 202 201 195 200 209 209 211 210 210 215 217 217 214 214 216 218 221 222 224 227 224 223 222 221 232 233 226
137 287 173 132 165 185 231 157 178 222 203 228 224 269 266 182 256 166 198 202 205 210 211 213 212 215 218 220 219 218 218 219 219 223 226 230 233 227 227 226 229 237 242 237
68 283 165 186 216 194 164 187 215 258 250 248 168 238 340 282 308 239 198 196 215 213 211 216 215 220 218 221 219 218 220 220 221 222 226 231 231 226 228 227 233 241 242 232
37 247 274 337 354 273 305 235 226 240 201 227 319 265 330 318 334 336 170 202 210 215 212 213 219 217 217 220 221 218 219 221 222 221 224 228 231 232 233 226 234 231 238 245
170 94 271 181 159 157 180 98 162 184 300 215 233 254 321 15 23 46 24 294 235 218 210 205 207 212 220 219 221 219 217 217 217 218 220 222 226 230 236 237 229 236 243 235
169 172 274 285 357 337 229 194 113 192 213 212 221 268 211 29 13 16 9 342 291 208 201 200 203 216 226 224 219 218 217 219 217 219 221 221 222 225 230 234 231 234 236 237
328 277 244 279 269 251 274 271 251 208 164 240 179 266 265 301 347 348 352 347 331 189 196 200 202 211 221 225 220 220 220 220 223 222 223 226 225 226 228 228 228 231 235 239
38 311 268 277 283 206 243 276 272 247 193 206 263 270 161 47 1 349 354 352 342 214 201 213 216 216 216 224 221 220 224 225 228 230 233 233 234 230 225 228 229 230 237 244
242 200 269 279 1 220 250 225 227 277 232 260 213 265 149 120 75 11 357 359 7 71 181 211 210 217 223 227 225 220 231 234 237 237 238 238 239 236 231 228 227 232 241 244
164 160 197 284 261 240 51 196 259 247 229 240 255 152 158 127 95 58 21 5 32 72 129 172 208 211 212 220 221 224 226 232 238 241 244 246 240 234 229 227 227 232 237 238
301 185 225 253 239 312 236 201 201 222 215 199 198 150 149 134 122 53 25 25 42 68 95 144 170 184 217 227 227 235 240 241 245 242 238 241 242 226 220 217 217 232 238 241
78 50 248 170 249 267 353 137 133 162 246 187 190 169 159 160 235 117 19 40 56 107 101 110 118 128 145 172 203 221 227 233 213 226 260 285 233 220 233 225 219 228 245 251
200 191 239 232 250 263 279 132 155 232 57 182 193 184 167 172 347 145 129 90 86 105 142 134 127 122 123 126 128 129 146 170 150 243 237 244 247 241 232 223 216 220 224 232
215 198 218 188 237 256 156 154 228 46 47 129 167 184 161 140 134 128 124 110 101 101 111 133 145 149 149 158 174 177 177 169 101 134 145 203 195 173 148 250 228 204 214 218
231 227 244 223 289 173 235 252 252 316 206 164 130 136 140 146 136 129 121 110 98 97 115 127 148 157 168 127 130 130 121 160 155 159 175 187 185 193 179 161 77 30 115 248
200 178 226 262 197 248 257 257 241 204 202 161 151 145 141 144 137 130 125 116 108 105 104 104 114 120 117 116 132 131 138 162 177 153 140 160 184 186 185 170 180 165 204 210
80 163 186 249 263 267 250 232 193 165 155 142 137 142 144 143 138 131 124 119 111 109 107 113 118 114 106 105 104 98 107 157 166 142 138 154 151 166 157 148 161 192 203 218
188 178 187 252 210 188 163 152 113 125 136 152 144 143 138 138 137 136 129 118 111 113 111 109 106 107 104 107 107 107 111 107 110 112 112 110 109 112 106 103 114 119 123 112